THOR ABLESTAR DEB, 177

Orbit data source: Space-Track

THOR ABLESTAR DEB, 177 is space debris in LEO originally from a launch on Thu, 29 Jun 1961 UTC launched from the Air Force Eastern Test Range (AFETR). Debris objects in space refer to the collection of defunct objects orbiting the Earth. Examples of debris include non-operational satellites, rocket bodies, and fragments generated from explosions, collisions, or faulty payload assembly.

Loading next visibility...
Identifier
177, 1961-015BB
Orbit
LEO
Country
Flag of USUS
Related business
Manufacturer
Unknown
Mission
Spacecraft
Bus & Motor
Unknown
Mass
Unknown
Launch date (UTC)
1961-06-29 (65 years ago)
Launch vehicle
Unknown
Launch site
Air Force Eastern Test Range (AFETR)
Object type
Payload
Rocket body
Debris
Shape & HBR
Unknown shape, 0.2 m
Radar Cross Section
Medium (>0.1 m² and <1 m²)

Expand to show TLE details & history
Last TLE update: 5 hours ago

TLE from 5 hours ago
0 THOR ABLESTAR DEB
1 00177U 61015BB  26037.63003821  .00000757  00000-0  41136-3 0  9996
2 00177  66.6522 176.7475 0108089 185.7055 174.2813 14.14797340322696
Epoch: 2026-02-06T15:07Z
TLE epoch observation values (Epoch: 2026-02-06T15:07:15.301Z)
Latitude
-0.00001°
Longitude
173.16858°
Altitude
922.771 km
Speed
7.351 km/s
True Right ascension
11h 46m 59s
True Declination
0° 00' 00"
Sunlit
Object was in full shadow at epoch
Visualization orbit readout
Latitude
Unknown
Longitude
Unknown
Altitude
Unknown
Speed
Unknown
Apparent Right ascension
Unknown
Apparent Declination
Unknown
Sunlit
N/A
Visualization observer readout
Local Sidereal Time
22:40:44
Azimuth
Unknown
Elevation
Unknown
Doppler factor
Unknown
Orbital elements
Apogee altitude
919.429 km
Perigee altitude
763.358 km
Semi-major axis
7,219.53 km
Eccentricity
0.01081
Inclination
66.6522°
RAAN
176.7475°
Arg. of periapsis
185.7055°
True anomaly
174.40308°
Mean anomaly
174.2813°
Eccentric anomaly
174.34235°
Mean motion
3.53818 °/min
Orbital period
101.75 mins
BSTAR
0.00041136
Loading maneuver chart data...
Computing Atmospheric mass density...

Documentation

Showing up to 5 results
|